Location: Unspecified
(0.0000°N, 0.0000°E)
Time: 20:41:16
(UTC+00:00)

Tiros 1 - Visible Passes

Search period start: 20 February 2017 00:00
Search period end: 02 March 2017 00:00
Orbit: 631 x 664 km, 48.4° (Epoch: 20 February)

Date Brightness Start Highest point End Pass type
(mag) Time Alt. Az. Time Alt. Az. Time Alt. Az.
20 Feb 8.7 18:46:35 10° N 18:49:32 16° NE 18:51:56 12° E visible
20 Feb 9.0 20:27:12 10° WNW 20:29:44 27° W 20:29:44 27° W visible
21 Feb 7.2 19:11:11 10° NNW 19:15:44 54° NE 19:19:10 17° SE visible
21 Feb 10.2 20:56:01 10° WSW 20:56:59 12° WSW 20:56:59 12° WSW visible
22 Feb 8.3 19:37:29 10° WNW 19:41:55 43° SW 19:46:25 10° SSE visible
23 Feb 10.0 20:05:52 10° W 20:08:11 14° SW 20:10:32 10° SSW visible
24 Feb 8.2 18:47:46 10° NW 18:52:16 48° SW 18:56:50 10° SSE visible
25 Feb 9.6 05:19:41 10° S 05:23:31 24° SE 05:27:18 10° ENE visible
25 Feb 10.0 19:15:49 10° W 19:18:31 15° SW 19:21:14 10° SSW visible
26 Feb 7.3 05:44:57 10° SW 05:49:43 80° SE 05:54:26 10° NE visible
27 Feb 9.5 04:30:12 10° S 04:33:51 21° SE 04:37:27 10° E visible
28 Feb 7.4 04:55:24 11° SSW 05:00:04 71° SE 05:04:46 10° NE visible
01 Mar 9.6 03:44:50 19° ESE 03:44:50 19° ESE 03:47:34 10° E visible
01 Mar 7.9 05:22:38 14° WSW 05:26:14 33° NW 05:30:30 10° NNE visible
